Flag for India Weather past 2 weeks in Ahmedabad, Gujarat, India

Now
72 °F

Passing clouds.


Feels Like: 75 °F
Forecast: 66 / 75 °F
Wind: 6 mph from South

Location: Ahmadabad Airport

Current Time: Mar 1, 2015 at 1:33:16 AM

Latest Report: Mar 1, 2015 at 12:40 AM


Visibility: 2 mi

Pressure: 29.74 "Hg

Humidity: 69%

Dew point: 61 °F

Location of AhmedabadLocation

Historic Weather in Ahmedabad — Graph

°F

Ahmedabad temperature yesterday

Maximum temperature yesterday: 88 °F (at 1:40 PM)
Minimum temperature yesterday: 63 °F (at 12:40 AM)
Average temperature yesterday: 75 °F

Past Weeks' High & Low Weather Summary

 TemperatureHumidityPressure
High100 °F (Feb 23, 1:40 PM)83% (Feb 15, 7:40 AM)30.01 "Hg (Feb 15, 7:40 AM)
Low54 °F (Feb 27, 5:40 AM)16% (Feb 26, 2:40 PM)29.68 "Hg (Feb 28, 3:40 PM)
Average77 °F46%29.86 "Hg
* Reported Feb 13 11:40 PM — Feb 28 11:40 PM, Ahmedabad, Weather by CustomWeather, © 2015

Note: Actual official high and low records may vary slightly from our data, if they occured in-between our weather recording intervals... More about our weather records

Advertising

Ahmedabad weather history for previous 24 hours

 ConditionsComfort  
Time TempWeatherWind HumidityBarometerVisibility
11:40 PM
Sat, Feb 28
72 °FPassing clouds.9 mph69%29.77 "Hg2 mi
9:40 PM73 °FPassing clouds.8 mph61%29.77 "Hg2 mi
8:40 PM75 °FPassing clouds.7 mph57%29.77 "Hg2 mi
7:40 PM79 °FPassing clouds.7 mph48%29.74 "Hg2 mi
6:40 PM81 °FScattered clouds.6 mph39%29.71 "Hg2 mi
5:40 PM86 °FScattered clouds.7 mph25%29.68 "Hg3 mi
4:40 PM88 °FScattered clouds.10 mph29%29.68 "Hg3 mi
3:40 PM88 °FScattered clouds.7 mph27%29.68 "Hg3 mi
2:40 PM86 °FScattered clouds.8 mph29%29.71 "Hg3 mi
1:40 PM88 °FScattered clouds.5 mph24%29.74 "Hg3 mi
12:40 PM86 °FScattered clouds.6 mph24%29.77 "Hg3 mi
11:40 AM81 °FScattered clouds.6 mph32%29.80 "Hg3 mi
10:40 AM77 °FScattered clouds.6 mph34%29.83 "Hg2 mi
8:40 AM66 °FScattered clouds.5 mph37%29.80 "Hg2 mi
7:40 AM64 °FPartly sunny.No wind43%29.80 "Hg2 mi
5:40 AM66 °FPassing clouds.3 mph37%29.77 "Hg2 mi
4:40 AM63 °FPassing clouds.3 mph45%29.77 "Hg2 mi
3:40 AM63 °FPassing clouds.3 mph45%29.77 "Hg2 mi
2:40 AM64 °FPassing clouds.6 mph43%29.80 "Hg2 mi
1:40 AM63 °FPassing clouds.2 mph49%29.83 "Hg2 mi
Weather by CustomWeather, © 2015

See weather overviewHow to use our weather pages